Regional Weather Roundup
Issued by NWS

Home | Current Version | Previous Version | Graphics & Text | Print | Product List | Glossary On
Versions: 1 2 3 4 5 6 7 8 9 10 11 12 13 14 15 16 17 18 19 20 21 22 23 24 25 26 27 28
000
ASUS45 KSLC 240210
RWRUT

UTAH REGIONAL WEATHER ROUNDUP
NATIONAL WEATHER SERVICE SALT LAKE CITY UT
800 PM MDT WED MAY 23 2018

UTZ001>011-023>025-240300-

NORTHERN UTAH

CITY           SKY/WX    TMP DP  RH WIND       PRES   REMARKS
BRIGHAM CITY   MOCLDY    71  39  30 S10       29.97R
HILL AFB       PTCLDY    68  41  38 CALM      29.99S
LOGAN          MOCLDY    69  43  38 S8        29.96R
OGDEN          MOCLDY    68  41  37 CALM      29.97S
SALT LAKE CITY MOCLDY    67  52  58 CALM      29.96S
TOOELE VALLEY  MOCLDY    72  39  30 S7        29.97S
WENDOVER       PTCLDY    71  41  33 S7        29.95S
HEBER CITY       N/A     59  46  63 E3        30.04S
WEST JORDAN    PTCLDY    67  46  46 CALM      30.00S

$$

UTZ011>015-024>027-240300-

CENTRAL/NORTHEAST UTAH

CITY           SKY/WX    TMP DP  RH WIND       PRES   REMARKS
PROVO AIRPORT  MOCLDY    70  45  40 N5        30.00R
MOAB/CANYONLAN CLEAR     78  21  12 W9        29.93R
DELTA          MOCLDY    68  37  32 E5        30.01R
PRICE          MOCLDY    65  37  35 N8        30.05S
ROOSEVELT      PTCLDY    64  36  34 CALM      30.05R
VERNAL         PTCLDY    68  35  29 CALM      30.02S

$$

UTZ013>016-019>022-027-240300-

SOUTHERN UTAH

CITY           SKY/WX    TMP DP  RH WIND       PRES   REMARKS
BRYCE CANYON   CLEAR     63  20  19 SW10      30.15R
CEDAR CITY     CLEAR     70  27  20 SW8       30.02R
MILFORD        PTCLDY    71  38  29 N10       29.99R
ST GEORGE      MOCLDY    85  33  15 W13       29.86S
HANKSVILLE     PTCLDY    79  23  12 SW6       29.95R
BLANDING         N/A     72  21  14 SE5       30.11R

$$

REGIONAL REPORTS     COLORADO/ARIZONA

CITY           SKY/WX    TMP DP  RH WIND       PRES   REMARKS
CRAIG, CO      MOCLDY    60  40  47 SW7       30.06R
GRAND JUNCTION PTCLDY    78  27  15 W7        29.96R
RIFLE, CO      CLEAR     74  25  16 W12       30.00R
MONTROSE, CO   CLEAR     73  17  12 W13       30.03R
CORTEZ, CO     CLEAR     73  21  14 SW6       30.05R
COLORADO CITY    N/A     79  28  15 W10G17    30.01R
PAGE, AZ       CLEAR     82  22  11 NE7       29.92R
GRAND CANYON   CLEAR     69  18  14 SW12      30.12R
KINGMAN, AZ      N/A    N/A N/A N/A MISG      29.94S
FLAGSTAFF, AZ  CLEAR     63  23  21 SW12      30.16R

$$

REGIONAL REPORTS    NEVADA/IDAHO/WYOMING

CITY           SKY/WX    TMP DP  RH WIND       PRES   REMARKS
LAS VEGAS, NV  PTCLDY    88  32  13 SE8       29.81S
ELY, NY        PTCLDY    65  38  36 S9        30.04F
ELKO, NV       PTCLDY    68  44  42 S9        29.96R
POCATELLO, ID  MOCLDY    66  46  48 SW5       29.96R
BURLEY, ID     PTCLDY    69  48  47 S17G23    29.91R
FORT BRIDGER,  LGT RAIN  56  41  55 SW24      30.15R
EVANSTON, WY   MOCLDY    56  40  55 SW16      30.11R
ROCK SPRINGS,  MOCLDY    56  33  42 SW10      30.09F
KEMMERER, WY   MOCLDY    55  37  50 SW12      30.12R

$$




USA.gov is the U.S. government's official web portal to all federal, state and local government web resources and services.